User: anonymous   Login
Location: ?????
(32.7281°N, 34.9563°E)
Time: 00:23:55
(UTC+00:00)
Language:

Cosmos 1408 - Orbit

View from above orbital plane
View from above orbital plane
View from above satellite
View from above satellite

Ground track
Ground track

The orbit data is extracted from the following two-line orbital elements,

1 13552U 82092A   21018.40959264  .00000926  00000-0  32044-4 0  9992
2 13552  82.5661  63.8774 0019428  94.3336 266.0124 15.28314517 96871
Epoch (UTC): 18 January 2021 09:49:48
Eccentricity: 0.0019428
inclination: 82.5661°
perigee height: 467 km
apogee height: 494 km
right ascension of ascending node: 63.8774°
argument of perigee: 94.3336°
revolutions per day: 15.28314517
mean anomaly at epoch: 266.0124°
orbit number at epoch: 9687

The dashed part of the orbit path shows where the satellite is in the earth's shadow,  

DLR